Location: Unspecified
(50.7693°N, 0.0000°E)
Time: 13:58:29
(UTC+00:00)

Vanguard 1 Rocket - Pass Details

Date: 19 June 2019
Orbit: 651 x 4225 km, 34.3° (Epoch: 22 July)

Event Time Altitude Azimuth Distance (km) Brightness Sun altitude
Rises 21:11:07 0° 255° (WSW) 5,273 11.6 -6.9°
Reaches altitude 10° 21:16:20 10° 241° (WSW) 3,603 10.6 -7.4°
Maximum altitude 21:21:46 19° 200° (SSW) 2,346 9.2 -7.9°
Drops below altitude 10° 21:25:44 10° 157° (SSE) 2,501 9.0 -8.2°
Enters shadow 21:25:52 10° 155° (SSE) 2,526 9.0 -8.3°
